| time (UTC) | temp F | wind direction | speed MPH | gust MPH | rain 1hr in | rain 24hr in | rain mn in | humidity % | barometer mb |
| 20260502223137 | 43 | 265 | 0.0 | 0.0 | 0.00 | 0.00 | 0.00 | 68 | 1010.2 |
| 20260502222634 | 43 | 164 | 0.0 | 0.0 | 0.00 | 0.00 | 0.00 | 69 | 1010.2 |
| 20260502222131 | 44 | 185 | 0.0 | 0.0 | 0.00 | 0.00 | 0.00 | 70 | 1010.2 |
| 20260502221626 | 44 | 138 | 0.0 | 0.0 | 0.00 | 0.00 | 0.00 | 70 | 1010.2 |
| 20260502221124 | 44 | 232 | 0.0 | 0.0 | 0.00 | 0.00 | 0.00 | 69 | 1010.2 |
| 20260502220620 | 44 | 197 | 0.0 | 0.0 | 0.00 | 0.00 | 0.00 | 67 | 1009.9 |
| 20260502220116 | 45 | 247 | 0.0 | 0.0 | 0.00 | 0.00 | 0.00 | 67 | 1010.2 |
| 20260502215613 | 45 | 282 | 0.0 | 0.0 | 0.00 | 0.00 | 0.00 | 66 | 1010.2 |
| 20260502215110 | 45 | 284 | 0.0 | 0.0 | 0.00 | 0.00 | 0.00 | 66 | 1010.2 |
| 20260502214607 | 45 | 178 | 0.0 | 0.0 | 0.00 | 0.00 | 0.00 | 67 | 1009.9 |
| 20260502214104 | 44 | 174 | 0.0 | 0.0 | 0.00 | 0.00 | 0.00 | 66 | 1010.2 |
| 20260502213601 | 44 | 217 | 0.0 | 0.0 | 0.00 | 0.00 | 0.00 | 66 | 1010.2 |
| 20260502213053 | 45 | 257 | 0.0 | 0.0 | 0.00 | 0.00 | 0.00 | 66 | 1010.2 |
| 20260502212552 | 45 | 240 | 0.0 | 0.0 | 0.00 | 0.00 | 0.00 | 66 | 1010.2 |
| 20260502212049 | 45 | 211 | 0.0 | 0.0 | 0.00 | 0.00 | 0.00 | 65 | 1010.2 |
| 20260502211544 | 45 | 221 | 0.0 | 0.0 | 0.00 | 0.00 | 0.00 | 64 | 1010.2 |
| 20260502211036 | 45 | 260 | 0.0 | 0.0 | 0.00 | 0.00 | 0.00 | 63 | 1010.2 |
| 20260502210533 | 46 | 254 | 0.0 | 0.0 | 0.00 | 0.00 | 0.00 | 59 | 1009.9 |
| 20260502210030 | 47 | 199 | 0.0 | 0.0 | 0.00 | 0.00 | 0.00 | 58 | 1009.9 |
| 20260502205526 | 48 | 193 | 0.0 | 0.0 | 0.00 | 0.00 | 0.00 | 54 | 1009.9 |
| 20260502205024 | 48 | 235 | 0.0 | 0.0 | 0.00 | 0.00 | 0.00 | 52 | 1009.5 |
| 20260502204521 | 49 | 195 | 0.0 | 0.0 | 0.00 | 0.00 | 0.00 | 51 | 1009.5 |
| 20260502204019 | 49 | 231 | 0.0 | 0.0 | 0.00 | 0.00 | 0.00 | 50 | 1009.5 |
| 20260502203515 | 49 | 244 | 0.0 | 0.0 | 0.00 | 0.00 | 0.00 | 49 | 1009.5 |
| 20260502203012 | 50 | 232 | 0.0 | 0.0 | 0.00 | 0.00 | 0.00 | 50 | 1009.5 |
| 20260502202508 | 50 | 192 | 0.0 | 0.0 | 0.00 | 0.00 | 0.00 | 50 | 1009.5 |
| 20260502202007 | 49 | 214 | 0.0 | 0.0 | 0.00 | 0.00 | 0.00 | 49 | 1009.5 |
| 20260502201502 | 49 | 300 | 0.0 | 0.0 | 0.00 | 0.00 | 0.00 | 49 | 1009.5 |
| 20260502200959 | 50 | 199 | 0.0 | 0.0 | 0.00 | 0.00 | 0.00 | 49 | 1009.5 |
| 20260502200455 | 50 | 170 | 0.0 | 0.0 | 0.00 | 0.00 | 0.00 | 47 | 1009.9 |
| 20260502195953 | 50 | 115 | 0.0 | 0.0 | 0.00 | 0.00 | 0.00 | 46 | 1009.5 |
| 20260502195450 | 50 | 166 | 0.0 | 0.0 | 0.00 | 0.00 | 0.00 | 47 | 1009.5 |
| 20260502194946 | 49 | 267 | 0.0 | 0.0 | 0.00 | 0.00 | 0.00 | 47 | 1009.5 |
| 20260502194443 | 50 | 218 | 0.0 | 2.0 | 0.00 | 0.00 | 0.00 | 46 | 1009.5 |
| 20260502193938 | 50 | 264 | 0.0 | 0.0 | 0.00 | 0.00 | 0.00 | 46 | 1009.9 |
| 20260502193436 | 51 | 228 | 0.0 | 2.0 | 0.00 | 0.00 | 0.00 | 44 | 1009.5 |
| 20260502192931 | 51 | 154 | 0.0 | 0.0 | 0.00 | 0.00 | 0.00 | 45 | 1009.5 |
| 20260502192429 | 50 | 261 | 0.0 | 5.0 | 0.00 | 0.00 | 0.00 | 44 | 1009.5 |
| 20260502191925 | 51 | 169 | 0.0 | 0.0 | 0.00 | 0.00 | 0.00 | 43 | 1009.5 |
| 20260502191424 | 52 | 193 | 0.0 | 0.0 | 0.00 | 0.00 | 0.00 | 41 | 1009.5 |
| 20260502190921 | 52 | 174 | 0.0 | 0.0 | 0.00 | 0.00 | 0.00 | 40 | 1009.5 |
| 20260502190418 | 52 | 191 | 0.0 | 0.0 | 0.00 | 0.00 | 0.00 | 40 | 1009.5 |
| 20260502185914 | 52 | 238 | 0.0 | 0.0 | 0.00 | 0.00 | 0.00 | 40 | 1009.5 |
| 20260502185409 | 51 | 179 | 0.0 | 0.0 | 0.00 | 0.00 | 0.00 | 40 | 1009.5 |
| 20260502184907 | 52 | 257 | 0.0 | 0.0 | 0.00 | 0.00 | 0.00 | 41 | 1009.5 |
| 20260502184402 | 51 | 95 | 0.0 | 2.0 | 0.00 | 0.00 | 0.00 | 42 | 1009.5 |
| 20260502183859 | 51 | 185 | 0.0 | 0.0 | 0.00 | 0.00 | 0.00 | 39 | 1009.5 |
| 20260502183355 | 52 | 200 | 0.0 | 0.0 | 0.00 | 0.00 | 0.00 | 41 | 1009.5 |
| 20260502182850 | 52 | 199 | 0.0 | 0.0 | 0.00 | 0.00 | 0.00 | 40 | 1009.5 |
| 20260502182346 | 51 | 187 | 0.0 | 0.0 | 0.00 | 0.00 | 0.00 | 39 | 1009.5 |
| 20260502181842 | 52 | 177 | 0.0 | 0.0 | 0.00 | 0.00 | 0.00 | 39 | 1009.5 |
| 20260502181342 | 52 | 152 | 0.0 | 0.0 | 0.00 | 0.00 | 0.00 | 40 | 1009.5 |
| 20260502180839 | 51 | 195 | 0.0 | 0.0 | 0.00 | 0.00 | 0.00 | 41 | 1009.5 |
| 20260502180336 | 51 | 243 | 0.0 | 0.0 | 0.00 | 0.00 | 0.00 | 40 | 1009.5 |
| 20260502170255 | 53 | 161 | 0.0 | 0.0 | 0.00 | 0.00 | 0.00 | 35 | 1009.5 |
| 20260502164242 | 53 | 231 | 0.0 | 0.0 | 0.00 | 0.00 | 0.00 | 37 | 1009.9 |
| 20260502163738 | 54 | 11 | 0.0 | 0.0 | 0.00 | 0.00 | 0.00 | 36 | 1009.5 |
| 20260502163235 | 53 | 171 | 0.0 | 2.0 | 0.00 | 0.00 | 0.00 | 37 | 1009.9 |
| 20260502162732 | 53 | 278 | 0.0 | 2.0 | 0.00 | 0.00 | 0.00 | 38 | 1010.2 |
| 20260502162229 | 53 | 266 | 0.0 | 2.0 | 0.00 | 0.00 | 0.00 | 38 | 1009.9 |
| 20260502161726 | 54 | 98 | 0.0 | 2.0 | 0.00 | 0.00 | 0.00 | 36 | 1010.2 |
| 20260502161222 | 54 | 198 | 0.0 | 0.0 | 0.00 | 0.00 | 0.00 | 36 | 1010.2 |
| 20260502160720 | 54 | 150 | 0.0 | 0.0 | 0.00 | 0.00 | 0.00 | 34 | 1010.2 |
| 20260502160219 | 56 | 19 | 0.0 | 0.0 | 0.00 | 0.00 | 0.00 | 40 | 1010.2 |
| 20260502152132 | 51 | 218 | 0.0 | 0.0 | 0.00 | 0.00 | 0.00 | 42 | 1010.6 |
| 20260502151630 | 51 | 246 | 0.0 | 0.0 | 0.00 | 0.00 | 0.00 | 41 | 1010.6 |
| 20260502151127 | 51 | 241 | 0.0 | 0.0 | 0.00 | 0.00 | 0.00 | 42 | 1010.6 |
| 20260502150624 | 52 | 251 | 0.0 | 0.0 | 0.00 | 0.00 | 0.00 | 48 | 1010.6 |
| 20260502150120 | 51 | 149 | 0.0 | 0.0 | 0.00 | 0.00 | 0.00 | 43 | 1010.6 |
| 20260502130509 | 46 | 145 | 0.0 | 0.0 | 0.00 | 0.00 | 0.00 | 66 | 1010.9 |
| 20260502123451 | 43 | 171 | 0.0 | 0.0 | 0.00 | 0.00 | 0.00 | 71 | 1010.6 |
| 20260502122948 | 43 | 195 | 0.0 | 0.0 | 0.00 | 0.00 | 0.00 | 74 | 1010.6 |
| 20260502122444 | 42 | 226 | 0.0 | 0.0 | 0.00 | 0.00 | 0.00 | 73 | 1010.6 |
| 20260502121943 | 42 | 198 | 0.0 | 0.0 | 0.00 | 0.00 | 0.00 | 73 | 1010.6 |
| 20260502121440 | 44 | 204 | 0.0 | 0.0 | 0.00 | 0.00 | 0.00 | 74 | 1010.6 |
| 20260502120938 | 44 | 168 | 0.0 | 0.0 | 0.00 | 0.00 | 0.00 | 77 | 1010.6 |
| 20260502120434 | 43 | 169 | 0.0 | 0.0 | 0.00 | 0.00 | 0.00 | 80 | 1010.6 |
| 20260502115931 | 42 | 150 | 0.0 | 0.0 | 0.00 | 0.00 | 0.00 | 81 | 1010.6 |
| 20260502115428 | 41 | 173 | 0.0 | 0.0 | 0.00 | 0.00 | 0.00 | 84 | 1010.6 |
| 20260502114924 | 40 | 220 | 0.0 | 0.0 | 0.00 | 0.00 | 0.00 | 85 | 1010.6 |
| 20260502114421 | 40 | 213 | 0.0 | 0.0 | 0.00 | 0.00 | 0.00 | 85 | 1010.2 |
| 20260502113918 | 39 | 235 | 0.0 | 0.0 | 0.00 | 0.00 | 0.00 | 85 | 1010.2 |
| 20260502113416 | 39 | 195 | 0.0 | 0.0 | 0.00 | 0.00 | 0.00 | 86 | 1010.2 |
| 20260502112914 | 38 | 26 | 0.0 | 0.0 | 0.00 | 0.00 | 0.00 | 88 | 1010.2 |
| 20260502112411 | 38 | 250 | 0.0 | 0.0 | 0.00 | 0.00 | 0.00 | 88 | 1010.2 |
| 20260502111909 | 38 | 348 | 0.0 | 0.0 | 0.00 | 0.00 | 0.00 | 89 | 1010.2 |
| 20260502111405 | 37 | 234 | 0.0 | 0.0 | 0.00 | 0.00 | 0.00 | 90 | 1010.2 |
| 20260502110903 | 37 | 233 | 0.0 | 0.0 | 0.00 | 0.00 | 0.00 | 90 | 1010.2 |
| 20260502110401 | 36 | 254 | 0.0 | 0.0 | 0.00 | 0.00 | 0.00 | 91 | 1010.2 |
| 20260502105858 | 36 | 193 | 0.0 | 0.0 | 0.00 | 0.00 | 0.00 | 91 | 1010.2 |
| 20260502105355 | 36 | 225 | 0.0 | 0.0 | 0.00 | 0.00 | 0.00 | 91 | 1009.9 |
| 20260502104853 | 35 | 186 | 0.0 | 0.0 | 0.00 | 0.00 | 0.00 | 91 | 1009.9 |
| 20260502104350 | 35 | 216 | 0.0 | 0.0 | 0.00 | 0.00 | 0.00 | 92 | 1009.9 |
| 20260502103847 | 35 | 247 | 0.0 | 0.0 | 0.00 | 0.00 | 0.00 | 92 | 1009.9 |
| 20260502103344 | 35 | 228 | 0.0 | 0.0 | 0.00 | 0.00 | 0.00 | 92 | 1009.9 |
| 20260502102841 | 35 | 261 | 0.0 | 0.0 | 0.00 | 0.00 | 0.00 | 92 | 1009.9 |
| 20260502102338 | 34 | 244 | 0.0 | 0.0 | 0.00 | 0.00 | 0.00 | 92 | 1009.5 |
| 20260502101835 | 34 | 257 | 0.0 | 0.0 | 0.00 | 0.00 | 0.00 | 92 | 1009.5 |
| 20260502101333 | 34 | 235 | 0.0 | 0.0 | 0.00 | 0.00 | 0.00 | 92 | 1009.5 |
| 20260502100832 | 34 | 201 | 0.0 | 0.0 | 0.00 | 0.00 | 0.00 | 92 | 1009.5 |
| 20260502100331 | 33 | 215 | 0.0 | 0.0 | 0.00 | 0.00 | 0.00 | 92 | 1009.5 |
| 20260502091304 | 32 | 202 | 0.0 | 0.0 | 0.00 | 0.00 | 0.00 | 92 | 1008.8 |
| 20260502090802 | 32 | 222 | 0.0 | 0.0 | 0.00 | 0.00 | 0.00 | 92 | 1008.8 |
| 20260502090258 | 33 | 211 | 0.0 | 0.0 | 0.00 | 0.00 | 0.00 | 92 | 1008.8 |
| 20260502071159 | 32 | 188 | 0.0 | 0.0 | 0.00 | 0.00 | 0.00 | 92 | 1008.4 |
| 20260502070657 | 33 | 189 | 0.0 | 0.0 | 0.00 | 0.00 | 0.00 | 92 | 1008.1 |
| 20260502070154 | 33 | 194 | 0.0 | 0.0 | 0.00 | 0.00 | 0.00 | 92 | 1008.1 |
| 20260502065653 | 33 | 198 | 0.0 | 0.0 | 0.00 | 0.00 | 0.00 | 91 | 1008.4 |
| 20260502065150 | 33 | 186 | 0.0 | 0.0 | 0.00 | 0.00 | 0.00 | 91 | 1008.1 |
| 20260502064649 | 34 | 187 | 0.0 | 0.0 | 0.00 | 0.00 | 0.00 | 91 | 1008.1 |
| 20260502064145 | 34 | 181 | 0.0 | 0.0 | 0.00 | 0.00 | 0.00 | 91 | 1008.1 |
| 20260502063643 | 34 | 200 | 0.0 | 0.0 | 0.00 | 0.00 | 0.00 | 91 | 1007.7 |
| 20260502063141 | 35 | 192 | 0.0 | 0.0 | 0.00 | 0.00 | 0.00 | 91 | 1008.1 |
| 20260502062637 | 35 | 189 | 0.0 | 0.0 | 0.00 | 0.00 | 0.00 | 91 | 1007.7 |
| 20260502062135 | 35 | 203 | 0.0 | 0.0 | 0.00 | 0.00 | 0.00 | 91 | 1007.7 |
| 20260502061633 | 35 | 193 | 0.0 | 0.0 | 0.00 | 0.00 | 0.00 | 91 | 1007.7 |
| 20260502061131 | 35 | 194 | 0.0 | 0.0 | 0.00 | 0.00 | 0.00 | 91 | 1007.7 |
| 20260502060630 | 35 | 198 | 0.0 | 0.0 | 0.00 | 0.00 | 0.00 | 91 | 1007.7 |
| 20260502060127 | 34 | 189 | 0.0 | 0.0 | 0.00 | 0.00 | 0.00 | 91 | 1007.7 |
| 20260502055625 | 35 | 211 | 0.0 | 0.0 | 0.00 | 0.00 | 0.00 | 91 | 1007.4 |
| 20260502055123 | 35 | 225 | 0.0 | 0.0 | 0.00 | 0.00 | 0.00 | 91 | 1007.7 |
| 20260502054622 | 35 | 233 | 0.0 | 0.0 | 0.00 | 0.00 | 0.00 | 91 | 1007.7 |
| 20260502054119 | 36 | 217 | 0.0 | 0.0 | 0.00 | 0.00 | 0.00 | 91 | 1007.4 |
| 20260502053616 | 36 | 207 | 0.0 | 0.0 | 0.00 | 0.00 | 0.00 | 91 | 1007.4 |
| 20260502053113 | 36 | 185 | 0.0 | 0.0 | 0.00 | 0.00 | 0.00 | 91 | 1007.7 |
| 20260502052611 | 36 | 198 | 0.0 | 0.0 | 0.00 | 0.00 | 0.00 | 91 | 1007.7 |
| 20260502052109 | 36 | 209 | 0.0 | 0.0 | 0.00 | 0.00 | 0.00 | 91 | 1007.4 |
| 20260502051607 | 36 | 172 | 0.0 | 0.0 | 0.00 | 0.00 | 0.00 | 91 | 1007.7 |
| 20260502051105 | 36 | 196 | 0.0 | 0.0 | 0.00 | 0.00 | 0.00 | 91 | 1007.7 |
| 20260502050601 | 37 | 204 | 0.0 | 0.0 | 0.00 | 0.00 | 0.00 | 91 | 1007.7 |
| 20260502050058 | 37 | 189 | 0.0 | 0.0 | 0.00 | 0.00 | 0.00 | 91 | 1007.7 |
| 20260502045554 | 37 | 182 | 0.0 | 0.0 | 0.00 | 0.00 | 0.00 | 91 | 1007.7 |
| 20260502045051 | 37 | 186 | 0.0 | 0.0 | 0.00 | 0.00 | 0.00 | 91 | 1007.7 |
| 20260502044548 | 37 | 181 | 0.0 | 0.0 | 0.00 | 0.00 | 0.00 | 91 | 1007.7 |
| 20260502044044 | 37 | 223 | 0.0 | 0.0 | 0.00 | 0.00 | 0.00 | 91 | 1007.7 |
| 20260502043542 | 37 | 147 | 0.0 | 0.0 | 0.00 | 0.00 | 0.00 | 91 | 1007.4 |
| 20260502043038 | 37 | 269 | 0.0 | 0.0 | 0.00 | 0.00 | 0.00 | 91 | 1007.7 |
| 20260502042533 | 37 | 265 | 0.0 | 0.0 | 0.00 | 0.00 | 0.00 | 91 | 1007.4 |
| 20260502042031 | 37 | 183 | 0.0 | 0.0 | 0.00 | 0.00 | 0.00 | 91 | 1007.4 |
| 20260502041529 | 38 | 198 | 0.0 | 0.0 | 0.00 | 0.00 | 0.00 | 91 | 1007.4 |
| 20260502041026 | 38 | 173 | 0.0 | 0.0 | 0.00 | 0.00 | 0.00 | 91 | 1007.4 |
| 20260502040522 | 38 | 145 | 0.0 | 0.0 | 0.00 | 0.00 | 0.00 | 91 | 1007.4 |
| 20260502040020 | 38 | 248 | 0.0 | 0.0 | 0.00 | 0.25 | 0.25 | 91 | 1007.4 |
| 20260502035515 | 38 | 211 | 0.0 | 0.0 | 0.00 | 0.25 | 0.25 | 91 | 1007.4 |
| 20260502035013 | 38 | 281 | 0.0 | 0.0 | 0.00 | 0.25 | 0.25 | 91 | 1007.4 |
| 20260502034511 | 38 | 146 | 0.0 | 0.0 | 0.00 | 0.25 | 0.25 | 91 | 1007.4 |
| 20260502034009 | 38 | 193 | 0.0 | 0.0 | 0.00 | 0.25 | 0.25 | 92 | 1007.4 |
| 20260502033507 | 38 | 199 | 0.0 | 0.0 | 0.00 | 0.25 | 0.25 | 92 | 1007.4 |
| 20260502033004 | 38 | 220 | 0.0 | 0.0 | 0.00 | 0.25 | 0.25 | 92 | 1007.4 |
| 20260502032459 | 38 | 191 | 0.0 | 0.0 | 0.00 | 0.25 | 0.25 | 92 | 1007.4 |
| 20260502031956 | 38 | 201 | 0.0 | 0.0 | 0.00 | 0.25 | 0.25 | 92 | 1007.1 |
| 20260502031454 | 39 | 222 | 0.0 | 0.0 | 0.00 | 0.25 | 0.25 | 92 | 1007.4 |
| 20260502030952 | 39 | 220 | 0.0 | 0.0 | 0.00 | 0.25 | 0.25 | 92 | 1007.4 |
| 20260502030450 | 39 | 193 | 0.0 | 0.0 | 0.00 | 0.25 | 0.25 | 92 | 1007.1 |
| 20260502025948 | 39 | 192 | 0.0 | 0.0 | 0.00 | 0.25 | 0.25 | 92 | 1007.4 |
| 20260502025445 | 39 | 169 | 0.0 | 0.0 | 0.00 | 0.25 | 0.25 | 92 | 1007.4 |
| 20260502024943 | 39 | 204 | 0.0 | 0.0 | 0.00 | 0.25 | 0.25 | 92 | 1007.4 |
| 20260502024441 | 39 | 248 | 0.0 | 0.0 | 0.00 | 0.25 | 0.25 | 92 | 1007.4 |
| 20260502023939 | 39 | 302 | 0.0 | 0.0 | 0.00 | 0.25 | 0.25 | 92 | 1007.1 |
| 20260502023436 | 39 | 204 | 0.0 | 0.0 | 0.00 | 0.25 | 0.25 | 92 | 1007.4 |
| 20260502022933 | 39 | 197 | 0.0 | 0.0 | 0.00 | 0.25 | 0.25 | 92 | 1007.1 |
| 20260502022429 | 39 | 210 | 0.0 | 0.0 | 0.00 | 0.25 | 0.25 | 92 | 1007.4 |
| 20260502021926 | 39 | 201 | 0.0 | 0.0 | 0.00 | 0.25 | 0.25 | 92 | 1007.4 |
| 20260502021424 | 39 | 202 | 0.0 | 0.0 | 0.00 | 0.25 | 0.25 | 92 | 1007.4 |
| 20260502020921 | 39 | 207 | 0.0 | 0.0 | 0.00 | 0.25 | 0.25 | 92 | 1007.4 |
| 20260502020419 | 39 | 237 | 0.0 | 0.0 | 0.07 | 0.25 | 0.25 | 92 | 1007.4 |
| 20260502015915 | 39 | 204 | 0.0 | 0.0 | 0.07 | 0.25 | 0.25 | 92 | 1007.1 |
| 20260502015413 | 40 | 153 | 0.0 | 0.0 | 0.00 | 0.24 | 0.24 | 92 | 1007.4 |
| 20260502014909 | 40 | 192 | 0.0 | 0.0 | 0.00 | 0.24 | 0.24 | 92 | 1007.4 |
| 20260502014406 | 40 | 248 | 0.0 | 0.0 | 0.00 | 0.24 | 0.24 | 92 | 1007.4 |
| 20260502013903 | 40 | 241 | 0.0 | 0.0 | 0.00 | 0.24 | 0.24 | 92 | 1007.1 |
| 20260502013358 | 40 | 200 | 0.0 | 0.0 | 0.00 | 0.24 | 0.24 | 92 | 1007.4 |
| 20260502012855 | 40 | 220 | 0.0 | 0.0 | 0.00 | 0.24 | 0.24 | 91 | 1007.1 |
| 20260502012353 | 41 | 144 | 0.0 | 0.0 | 0.07 | 0.24 | 0.24 | 91 | 1007.1 |
| 20260502011850 | 41 | 199 | 0.0 | 0.0 | 0.00 | 0.24 | 0.24 | 91 | 1007.1 |
| 20260502011346 | 41 | 39 | 0.0 | 0.0 | 0.07 | 0.22 | 0.22 | 91 | 1007.1 |
| 20260502010843 | 41 | 205 | 0.0 | 0.0 | 0.14 | 0.22 | 0.22 | 91 | 1007.1 |
| 20260502010340 | 41 | 358 | 0.0 | 0.0 | 0.07 | 0.21 | 0.21 | 91 | 1007.1 |
| 20260502005836 | 41 | 112 | 0.0 | 0.0 | 0.00 | 0.20 | 0.20 | 91 | 1006.7 |
| 20260502005335 | 41 | 101 | 0.0 | 0.0 | 0.00 | 0.20 | 0.20 | 91 | 1006.7 |
| 20260502004832 | 41 | 203 | 0.0 | 0.0 | 0.00 | 0.20 | 0.20 | 91 | 1007.1 |
| 20260502004327 | 41 | 161 | 0.0 | 0.0 | 0.00 | 0.20 | 0.20 | 91 | 1006.7 |
| 20260502003826 | 41 | 192 | 0.0 | 0.0 | 0.00 | 0.20 | 0.20 | 91 | 1006.7 |
| 20260502003322 | 41 | 199 | 0.0 | 0.0 | 0.00 | 0.20 | 0.20 | 91 | 1006.7 |
| 20260502002819 | 41 | 189 | 0.0 | 0.0 | 0.00 | 0.20 | 0.20 | 91 | 1006.7 |
| 20260502002316 | 41 | 186 | 0.0 | 0.0 | 0.00 | 0.20 | 0.20 | 90 | 1006.4 |
| 20260502001813 | 41 | 197 | 0.0 | 0.0 | 0.00 | 0.20 | 0.20 | 90 | 1006.7 |
| 20260502001311 | 41 | 195 | 0.0 | 0.0 | 0.00 | 0.20 | 0.20 | 90 | 1006.4 |
| 20260502000808 | 41 | 317 | 0.0 | 0.0 | 0.00 | 0.20 | 0.20 | 90 | 1006.4 |
| 20260502000306 | 41 | 159 | 0.0 | 0.0 | 0.00 | 0.20 | 0.20 | 90 | 1006.4 |
| 20260501235802 | 41 | 181 | 0.0 | 0.0 | 0.00 | 0.20 | 0.20 | 90 | 1006.4 |
| 20260501235258 | 42 | 230 | 0.0 | 0.0 | 0.00 | 0.20 | 0.20 | 90 | 1006.1 |
| 20260501234753 | 42 | 181 | 0.0 | 0.0 | 0.00 | 0.20 | 0.20 | 89 | 1006.1 |
| 20260501234251 | 42 | 161 | 0.0 | 0.0 | 0.00 | 0.20 | 0.20 | 89 | 1006.1 |
| 20260501233749 | 42 | 218 | 0.0 | 0.0 | 0.00 | 0.20 | 0.20 | 89 | 1006.1 |
| 20260501233246 | 42 | 195 | 0.0 | 0.0 | 0.00 | 0.20 | 0.20 | 89 | 1006.1 |
| 20260501232741 | 42 | 159 | 0.0 | 0.0 | 0.00 | 0.20 | 0.20 | 89 | 1006.1 |
| 20260501232239 | 42 | 202 | 0.0 | 0.0 | 0.00 | 0.20 | 0.20 | 88 | 1006.1 |
| 20260501231736 | 42 | 202 | 0.0 | 0.0 | 0.00 | 0.20 | 0.20 | 88 | 1006.1 |
| 20260501231235 | 42 | 356 | 0.0 | 2.0 | 0.00 | 0.20 | 0.20 | 88 | 1006.1 |
| 20260501230732 | 42 | 251 | 0.0 | 0.0 | 0.00 | 0.20 | 0.20 | 88 | 1006.1 |
| 20260501230231 | 42 | 204 | 0.0 | 0.0 | 0.00 | 0.20 | 0.20 | 88 | 1005.7 |
| 20260501225729 | 42 | 70 | 0.0 | 0.0 | 0.00 | 0.20 | 0.20 | 88 | 1005.7 |
| 20260501225226 | 43 | 203 | 0.0 | 0.0 | 0.00 | 0.20 | 0.20 | 88 | 1005.7 |
| 20260501224722 | 43 | 196 | 0.0 | 0.0 | 0.00 | 0.20 | 0.20 | 88 | 1005.7 |
| 20260501224219 | 43 | 48 | 0.0 | 0.0 | 0.00 | 0.20 | 0.20 | 88 | 1005.4 |
| 20260501223715 | 43 | 194 | 0.0 | 0.0 | 0.00 | 0.20 | 0.20 | 88 | 1005.4 |